Home   Weather   Oberwart   Past weeks

Flag for Austria Past Weather in Oberwart, Burgenland, Austria — Yesterday and Last 2 Weeks

Now
24 °F

Fog.


Feels Like: 19 °F
Forecast: 11 / 29 °F
Wind: 3 mph from Northeast

Location: Eisenstadt

Current Time: Jan 21, 2017 at 11:01:32 pm

Latest Report: Jan 21, 2017 at 10:00 pm


Visibility: 2 mi

Pressure: 30.54 "Hg

Humidity: 82%

Dew Point: 19 °F

Location of OberwartLocation

Past Weather in Oberwart — Graph

°F

Oberwart Temperature Yesterday

Maximum temperature yesterday: 26 °F (at 3:00 pm)
Minimum temperature yesterday: 14 °F (at 8:00 am)
Average temperature yesterday: 19 °F

High & Low Weather Summary for the Past Weeks

 TemperatureHumidityPressure
High44 °F (Jan 12, 2:00 pm)94% (Jan 13, 10:00 am)30.70 "Hg (Jan 13, 10:00 am)
Low7 °F (Jan 11, 5:00 am)39% (Jan 7, 3:00 pm)29.44 "Hg (Jan 13, 6:00 am)
Average26 °F71%30.25 "Hg
* Reported Jan 6 9:00 pm — Jan 21 9:00 pm, Oberwart, Weather by CustomWeather, © 2017

Note: Actual official high and low records may vary slightly from our data, if they occured in-between our weather recording intervals... More about our weather records

Advertising

Oberwart Weather History for the Previous 24 Hours

Scroll right to see more
 ConditionsComfort  
Time TempWeatherWind HumidityBarometerVisibility
9:00 pm
Sat, Jan 21
22 °FCold.2 mph83%30.55 "HgN/A
8:00 pm22 °FCold.2 mph83%30.54 "HgN/A
7:00 pm23 °FFog.3 mph81%30.53 "Hg2 mi
6:00 pm24 °FCold.2 mph80%30.53 "HgN/A
5:00 pm26 °FChilly.1 mph75%30.53 "HgN/A
4:00 pm28 °FSunny.1 mph69%30.53 "Hg6 mi
3:00 pm27 °FChilly.2 mph70%30.53 "HgN/A
2:00 pm26 °FChilly.2 mph73%30.53 "HgN/A
1:00 pm24 °FSunny.3 mph74%30.54 "Hg6 mi
12:00 pm22 °FCold.1 mph78%30.56 "HgN/A
11:00 am21 °FCold.1 mph80%30.59 "HgN/A
10:00 am18 °FSunny.1 mph84%30.60 "Hg3 mi
9:00 am17 °FCold.1 mph83%30.60 "HgN/A
8:00 am16 °FCold.No wind85%30.59 "HgN/A
7:00 am15 °FFog.2 mph84%30.58 "Hg3 mi
6:00 am14 °FFog.1 mph84%30.57 "Hg3 mi
5:00 am14 °FClear.2 mph85%30.57 "Hg3 mi
4:00 am14 °FClear.1 mph84%30.58 "Hg3 mi
3:00 am15 °FCold.2 mph85%30.58 "HgN/A
2:00 am16 °FCold.1 mph86%30.58 "HgN/A
1:00 am17 °FFog.1 mph86%30.60 "Hg4 mi
12:00 am17 °FCold.No wind86%30.60 "HgN/A
11:00 pm
Fri, Jan 20
18 °FCold.1 mph86%30.61 "HgN/A
Weather by CustomWeather, © 2017

See weather overviewHow to use our weather pages